Location: Observatorio Astronomico Bellanoche
(41.2340°N, 103.6610°W)
Time: 09:33:16
(UTC-06:00)

OTV 5 (USA 277) - Visible Passes

Search period start: 22 June 2018 00:00
Search period end: 02 July 2018 00:00
Orbit: 313 x 320 km, 54.5° (Epoch: 21 June)

Date Brightness Start Highest point End Pass type
(mag) Time Alt. Az. Time Alt. Az. Time Alt. Az.
22 Jun ? 00:51:00 10° N 00:51:51 11° NNE 00:52:38 10° NE visible
23 Jun ? 01:04:30 10° NNW 01:05:27 15° N 01:05:27 15° N visible
24 Jun ? 23:59:25 10° N 00:00:55 14° NNE 00:00:55 14° NNE visible
26 Jun ? 00:13:15 10° NNW 00:14:14 17° NNW 00:14:14 17° NNW visible
26 Jun ? 22:54:36 10° N 22:55:23 11° NNE 22:56:09 10° NE visible
27 Jun ? 00:27:26 10° NW 00:27:38 11° NW 00:27:38 11° NW visible
27 Jun ? 23:08:04 10° NNW 23:10:05 19° NNE 23:10:14 19° NE visible
28 Jun ? 23:22:05 10° NW 23:23:45 29° NNW 23:23:45 29° NNW visible
29 Jun ? 22:02:59 10° N 22:04:31 14° NNE 22:06:03 10° ENE visible
29 Jun ? 23:36:25 10° NW 23:37:18 18° WNW 23:37:18 18° WNW visible
30 Jun ? 22:16:48 10° NNW 22:19:09 26° NNE 22:20:03 21° ENE visible
01 Jul ? 22:30:59 10° NW 22:33:40 70° NE 22:33:42 69° NE visible
